This demonstration page uses our WeatherBlox Daily Observations layout. Learn more.

Left ArrowRight Arrow

Hourly Observations for September 26, 2020

Temp ( °F °C ) Dew Point ( °F °C ) Humidity (%) Winds ( mph kmh ) Pressure ( in mb ) Visibility ( mi km ) Precip ( " mm )
12:51 am 00:51 Clear 74 23.3 37 2.8 26 26 NW 9 15 29.81 1009 10 16.0934 0 0
1:51 am 01:51 Clear 76 24.4 38 3.3 25 25 NW 9 15 29.8 1009 10 16.0934 0 0
2:51 am 02:51 Clear 77 25 38 3.3 24 24 NW 8 13 29.81 1009 10 16.0934 0 0
3:51 am 03:51 Clear 75 23.9 39 3.9 27 27 NW 6 9 29.82 1010 10 16.0934 0 0
4:51 am 04:51 Clear 66 18.9 37 2.8 34 34 S 5 7 29.84 1011 10 16.0934 0 0
5:51 am 05:51 Clear 65 18.3 37 2.8 36 36 E 3 6 29.86 1011 10 16.0934 0 0
6:51 am 06:51 Sunny 66 18.9 36 2.2 33 33 E 6 9 29.88 1012 10 16.0934 0 0
7:51 am 07:51 Sunny 73 22.8 37 2.8 27 27 SE 5 7 29.88 1012 10 16.0934 0 0
8:51 am 08:51 Sunny 78 25.6 39 3.9 25 25 SE 5 7 29.88 1012 10 16.0934 0 0
9:51 am 09:51 Sunny 86 30 40 4.4 20 20 W 3 6 29.87 1011 10 16.0934 0 0
10:51 am 10:51 Sunny 91 32.8 41 5 17 17 W 8 13 29.83 1010 10 16.0934 0 0
11:51 am 11:51 Sunny 97 36.1 41 5 14 14 WNW 14 22 29.8 1009 10 16.0934 0 0
12:51 pm 12:51 Sunny 98 36.7 40 4.4 13 13 NW 20 31 29.77 1008 10 16.0934 0 0
1:51 pm 13:51 Sunny 99 37.2 39 3.9 12 12 WNW 20 31 29.73 1007 10 16.0934 0 0
2:51 pm 14:51 Sunny 100 37.8 38 3.3 12 12 WNW 23 37 29.71 1006 10 16.0934 0 0
3:51 pm 15:51 Sunny 98 36.7 37 2.8 12 12 WNW 21 33 29.71 1006 10 16.0934 0 0
4:51 pm 16:51 Sunny 96 35.6 36 2.2 12 12 WNW 21 33 29.73 1007 10 16.0934 0 0
5:51 pm 17:51 Sunny 93 33.9 35 1.7 13 13 WNW 20 31 29.74 1007 10 16.0934 0 0
6:51 pm 18:51 Clear 88 31.1 36 2.2 16 16 WNW 14 22 29.76 1008 10 16.0934 0 0
7:51 pm 19:51 Clear 84 28.9 36 2.2 18 18 NW 12 19 29.78 1008 10 16.0934 0 0
8:51 pm 20:51 Clear 82 27.8 37 2.8 20 20 NW 10 17 29.78 1009 10 16.0934 0 0
9:51 pm 21:51 Clear 81 27.2 37 2.8 21 21 WNW 12 19 29.77 1008 10 16.0934 0 0
10:51 pm 22:51 Clear 79 26.1 38 3.3 23 23 WNW 14 22 29.77 1008 10 16.0934 0 0
11:51 pm 23:51 Clear 77 25 38 3.3 24 24 NW 12 19 29.76 1008 10 16.0934 0 0

Powered by AerisWeather